sat.trackr.live / text

‹ back to catalog

STARLINK-3826

NORAD 52347 · 2022-045S

PAYLOAD ACTIVE UNKNOWN

§ Identity

Operator
Country
US
Launch date
2022-04-29
Launch site
AFETR
Launch vehicle
Mass (kg)
RCS (m²)

Purposes: comms

External: N2YO · Heavens-Above · Gunter

§ Orbital elements

Epoch: 2026-09-20T00:15:11.613312Z

Period
93.90 min
Inclination
53.1616°
Eccentricity
0.0001234
Mean motion
15.33543808 rev/d
Perigee alt
464.4 km
Apogee alt
466.1 km
Semi-major
6,843.4 km
B*
1.3872e-5
RAAN
32.2010°
Arg perigee
78.9068°
Mean anomaly
281.2073°
Rev number
24,531

§ Raw data

STARLINK-38261 52347U 22045S   26263.01055108  .00000083  00000+0  13872-4 0  99982 52347  53.1616  32.2010 0001234  78.9068 281.2073 15.33543808245319

JSON: /api/v1/satellites/52347 · /tle

For live sub-satellite position, see the globe view (requires WebGL).

§ Visibility from observer

Set your observer location to see the next 7 days of passes ≥ 10°. The values pass through the URL so the page stays shareable.

No JS? Fill the form by hand. The geolocation button needs JavaScript.